User: anonymous   Login
Location: Unspecified
(0.0000°N, 0.0000°E)
Time: 20:13:22
(UTC+00:00)
Language:

STARLINK-30801 - Orbit

View from above orbital plane
View from above orbital plane
View from above satellite
View from above satellite

Ground track
Ground track

The orbit is defined by the following mean orbital elements,

1 58184U          26145.47468291 +.00000000 +00000-0 +20876-4 0 00005
2 58184  43.0032  70.1611 0001485 266.8343  93.2339 15.27583113    01
Epoch (UTC): 25 May 2026 11:23:32
Eccentricity: 0.0001485
inclination: 43.0032°
perigee height: 482 km
apogee height: 484 km
right ascension of ascending node: 70.1611°
argument of perigee: 266.8343°
revolutions per day: 15.27583113
mean anomaly at epoch: 93.2339°

The dashed part of the orbit path shows where the satellite is in the earth's shadow,  

DLR